Change the Weather History Date:

Monday, December 3, 2012

  Actual Average Record
Temperature  
Mean Temperature 56 °F -  
Max Temperature 70 °F 51 °F 71 °F (1998)
Min Temperature 41 °F 32 °F 19 °F (2000)
Degree Days  
Heating Degree Days 10    
Growing Degree Days 6 (Base 50)    
Moisture  
Dew Point 45 °F    
Average Humidity 95    
Maximum Humidity 100    
Minimum Humidity 50    
Precipitation  
Precipitation 0.00 in - - ()
Sea Level Pressure  
Sea Level Pressure 30.20 in    
Wind  
Wind Speed 0 mph (WNW)    
Max Wind Speed 6 mph    
Max Gust Speed -    
Visibility 3 miles    
Events      
Averages and records for this station are not official NWS values.
T = Trace of Precipitation, MM = Missing Value Source: NWS Daily Summary

Daily Weather History Graph

Daily Weather History Graph

Search for Another Location

Airport or City:

Trip Planner

Search our weather history database for the weather conditions in past years. The results will help you decide how hot, cold, wet, or windy it might be!

Date:

Astronomy

Dec. 03, 2012 Rise Set
Actual Time 7:10 AM EST 4:47 PM EST
Civil Twilight 6:40 AM EST 5:16 PM EST
Nautical Twilight 6:07 AM EST 5:49 PM EST
Astronomical Twilight 5:35 AM EST 6:21 PM EST
Moon 9:30 PM EST (12/3) 10:33 AM EST (12/3)
Length of Visible Light 10h 35m
Length of Day
9h 37m
Waning Gibbous, 78% of the Moon is Illuminated
Dec 3
Waning Gibbous
Dec 6
Last Quarter
Dec 13
New
Dec 20
First Quarter
Dec 28
Full

Hourly Weather History & Observations

Time (EST) Temp. Windchill Dew Point Humidity Pressure Visibility Wind Dir Wind Speed Gust Speed Precip Events Conditions
12:55 AM 50.4 °F - 48.2 °F 92% 30.17 in 10.0 mi Calm Calm - N/A   Partly Cloudy
1:55 AM 47.7 °F - 47.5 °F 99% 30.17 in 9.0 mi Calm Calm - N/A   Clear
2:01 AM 48.2 °F - 46.4 °F 93% 30.18 in 5.0 mi Calm Calm - N/A   Clear
2:03 AM 46.4 °F - 46.4 °F 100% 30.18 in 2.5 mi Calm Calm - N/A   Clear
2:04 AM 46.4 °F - 46.4 °F 100% 30.18 in 2.0 mi Calm Calm - N/A   Clear
2:05 AM 46.4 °F - 46.4 °F 100% 30.18 in 1.8 mi Calm Calm - N/A   Clear
2:08 AM 46.4 °F - 46.4 °F 100% 30.18 in 1.5 mi Calm Calm - N/A   Clear
2:09 AM 46.4 °F - 46.4 °F 100% 30.18 in 1.2 mi Calm Calm - N/A   Clear
2:10 AM 46.4 °F - 46.4 °F 100% 30.18 in 1.2 mi Calm Calm - N/A   Clear
2:11 AM 46.4 °F - 46.4 °F 100% 30.18 in 1.0 mi Calm Calm - N/A   Clear
2:12 AM 46.4 °F - 46.4 °F 100% 30.18 in 1.2 mi Calm Calm - N/A   Clear
2:14 AM 46.4 °F - 46.4 °F 100% 30.18 in 1.5 mi Calm Calm - N/A   Clear
2:15 AM 46.4 °F - 46.4 °F 100% 30.18 in 1.5 mi Calm Calm - N/A   Clear
2:21 AM 46.4 °F - 46.4 °F 100% 30.19 in 1.8 mi Calm Calm - N/A   Clear
2:27 AM 46.4 °F - 46.4 °F 100% 30.19 in 2.0 mi Calm Calm - N/A   Clear
2:29 AM 46.4 °F - 46.4 °F 100% 30.19 in 2.5 mi Calm Calm - N/A   Clear
2:31 AM 46.4 °F - 46.4 °F 100% 30.19 in 2.0 mi Calm Calm - N/A   Clear
2:33 AM 46.4 °F - 46.4 °F 100% 30.19 in 1.8 mi Calm Calm - N/A   Clear
2:34 AM 46.4 °F - 46.4 °F 100% 30.19 in 1.5 mi Calm Calm - N/A   Clear
2:35 AM 46.4 °F - 46.4 °F 100% 30.19 in 1.2 mi Calm Calm - N/A   Clear
2:37 AM 46.4 °F - 46.4 °F 100% 30.19 in 1.0 mi Calm Calm - N/A   Clear
2:38 AM 46.4 °F - 46.4 °F 100% 30.19 in 1.0 mi Calm Calm - N/A   Clear
2:45 AM 46.4 °F - 46.4 °F 100% 30.19 in 0.8 mi Calm Calm - N/A   Clear
2:51 AM 46.4 °F - 46.4 °F 100% 30.19 in 0.8 mi Calm Calm - N/A   Clear
2:54 AM 46.4 °F - 44.6 °F 93% 30.19 in 1.0 mi Calm Calm - N/A   Clear
2:55 AM 45.7 °F - 45.3 °F 99% 30.19 in 1.0 mi Calm Calm - N/A   Clear
2:57 AM 46.4 °F - 44.6 °F 93% 30.19 in 1.2 mi Calm Calm - N/A   Clear
2:58 AM 46.4 °F - 44.6 °F 93% 30.19 in 1.5 mi Calm Calm - N/A   Clear
2:59 AM 46.4 °F - 44.6 °F 93% 30.19 in 1.8 mi Calm Calm - N/A   Clear
3:03 AM 44.6 °F - 44.6 °F 100% 30.19 in 2.0 mi Calm Calm - N/A   Clear
3:04 AM 44.6 °F - 44.6 °F 100% 30.19 in 2.5 mi Calm Calm - N/A   Clear
3:06 AM 44.6 °F - 44.6 °F 100% 30.19 in 2.0 mi Calm Calm - N/A   Clear
3:07 AM 44.6 °F - 44.6 °F 100% 30.19 in 1.8 mi Calm Calm - N/A   Clear
3:09 AM 44.6 °F - 44.6 °F 100% 30.19 in 1.5 mi Calm Calm - N/A   Clear
3:11 AM 44.6 °F - 44.6 °F 100% 30.19 in 1.2 mi Calm Calm - N/A   Clear
3:12 AM 44.6 °F - 44.6 °F 100% 30.19 in 1.0 mi Calm Calm - N/A   Clear
3:14 AM 44.6 °F - 44.6 °F 100% 30.19 in 0.8 mi Calm Calm - N/A   Clear
3:21 AM 44.6 °F - 44.6 °F 100% 30.19 in 1.0 mi Calm Calm - N/A   Clear
3:22 AM 44.6 °F - 44.6 °F 100% 30.19 in 1.0 mi Calm Calm - N/A   Clear
3:23 AM 44.6 °F - 44.6 °F 100% 30.19 in 1.2 mi Calm Calm - N/A   Clear
3:28 AM 44.6 °F - 44.6 °F 100% 30.19 in 1.0 mi Calm Calm - N/A   Partly Cloudy
3:31 AM 44.6 °F 43.1 °F 44.6 °F 100% 30.19 in 0.8 mi WNW 3.5 mph - N/A   Partly Cloudy
3:33 AM 44.6 °F 43.1 °F 44.6 °F 100% 30.19 in 0.8 mi WNW 3.5 mph - N/A   Partly Cloudy
3:37 AM 44.6 °F 43.1 °F 42.8 °F 93% 30.19 in 1.0 mi WNW 3.5 mph - N/A   Clear
3:38 AM 44.6 °F 43.1 °F 42.8 °F 93% 30.19 in 1.2 mi WNW 3.5 mph - N/A   Clear
3:39 AM 44.6 °F 43.1 °F 44.6 °F 100% 30.19 in 1.5 mi WNW 3.5 mph - N/A   Clear
3:41 AM 44.6 °F 43.1 °F 44.6 °F 100% 30.19 in 1.8 mi WNW 3.5 mph - N/A   Clear
3:42 AM 44.6 °F - 44.6 °F 100% 30.19 in 2.0 mi Calm Calm - N/A   Clear
3:43 AM 44.6 °F 43.1 °F 44.6 °F 100% 30.19 in 2.5 mi NW 3.5 mph - N/A   Clear
3:44 AM 44.6 °F 43.1 °F 44.6 °F 100% 30.19 in 3.0 mi NW 3.5 mph - N/A   Clear
3:55 AM 44.2 °F - 43.9 °F 99% 30.19 in 5.0 mi Calm Calm - N/A   Clear
4:09 AM 42.8 °F - 42.8 °F 100% 30.19 in 3.0 mi Calm Calm - N/A   Clear
4:20 AM 44.6 °F - 44.6 °F 100% 30.19 in 2.0 mi Calm Calm - N/A   Clear
4:21 AM 44.6 °F - 44.6 °F 100% 30.19 in 1.8 mi Calm Calm - N/A   Clear
4:22 AM 44.6 °F - 44.6 °F 100% 30.19 in 1.5 mi Calm Calm - N/A   Clear
4:24 AM 42.8 °F - 42.8 °F 100% 30.19 in 1.2 mi Calm Calm - N/A   Clear
4:27 AM 42.8 °F - 42.8 °F 100% 30.19 in 1.2 mi Calm Calm - N/A   Clear
4:28 AM 42.8 °F - 42.8 °F 100% 30.19 in 1.5 mi Calm Calm - N/A   Clear
4:30 AM 42.8 °F - 42.8 °F 100% 30.19 in 2.0 mi Calm Calm - N/A   Clear
4:31 AM 42.8 °F - 42.8 °F 100% 30.19 in 3.0 mi Calm Calm - N/A   Clear
4:39 AM 42.8 °F - 42.8 °F 100% 30.19 in 2.5 mi Calm Calm - N/A   Clear
4:40 AM 42.8 °F - 42.8 °F 100% 30.19 in 2.0 mi Calm Calm - N/A   Clear
4:41 AM 42.8 °F - 42.8 °F 100% 30.19 in 1.8 mi Calm Calm - N/A   Clear
4:42 AM 42.8 °F - 42.8 °F 100% 30.19 in 1.5 mi Calm Calm - N/A   Clear
4:46 AM 42.8 °F - 42.8 °F 100% 30.19 in 1.5 mi Calm Calm - N/A   Clear
4:48 AM 42.8 °F - 42.8 °F 100% 30.19 in 1.8 mi Calm Calm - N/A   Clear
4:49 AM 42.8 °F - 42.8 °F 100% 30.19 in 2.0 mi Calm Calm - N/A   Clear
4:51 AM 42.8 °F - 42.8 °F 100% 30.19 in 3.0 mi Calm Calm - N/A   Clear
4:55 AM 42.6 °F - 42.4 °F 99% 30.19 in 5.0 mi Calm Calm - N/A   Clear
4:58 AM 42.8 °F - 42.8 °F 100% 30.20 in 2.5 mi Calm Calm - N/A   Clear
4:59 AM 42.8 °F - 42.8 °F 100% 30.20 in 2.0 mi Calm Calm - N/A   Clear
5:00 AM 42.8 °F - 42.8 °F 100% 30.20 in 1.5 mi Calm Calm - N/A   Clear
5:01 AM 42.8 °F - 42.8 °F 100% 30.20 in 1.2 mi Calm Calm - N/A   Clear
5:03 AM 42.8 °F - 42.8 °F 100% 30.19 in 1.0 mi Calm Calm - N/A   Clear
5:05 AM 42.8 °F - 42.8 °F 100% 30.20 in 1.0 mi Calm Calm - N/A   Clear
5:06 AM 42.8 °F 41.1 °F 42.8 °F 100% 30.20 in 1.0 mi WNW 3.5 mph - N/A   Clear
5:07 AM 42.8 °F 41.1 °F 42.8 °F 100% 30.19 in 1.0 mi WNW 3.5 mph - N/A   Clear
5:09 AM 42.8 °F 41.1 °F 41.0 °F 93% 30.19 in 1.0 mi WNW 3.5 mph - N/A   Clear
5:10 AM 42.8 °F - 41.0 °F 93% 30.19 in 1.2 mi Calm Calm - N/A   Clear
5:11 AM 42.8 °F - 41.0 °F 93% 30.19 in 1.5 mi Calm Calm - N/A   Clear
5:12 AM 42.8 °F - 41.0 °F 93% 30.19 in 1.8 mi Calm Calm - N/A   Clear
5:13 AM 42.8 °F - 41.0 °F 93% 30.19 in 2.0 mi Calm Calm - N/A   Clear
5:14 AM 42.8 °F - 42.8 °F 100% 30.19 in 2.5 mi Calm Calm - N/A   Clear
5:15 AM 42.8 °F - 42.8 °F 100% 30.20 in 3.0 mi Calm Calm - N/A   Clear
5:25 AM 42.8 °F - 42.8 °F 100% 30.20 in 4.0 mi Calm Calm - N/A   Clear
5:27 AM 42.8 °F - 41.0 °F 93% 30.20 in 4.0 mi Calm Calm - N/A   Clear
5:55 AM 42.4 °F - 42.3 °F 99% 30.21 in 7.0 mi Calm Calm - N/A   Clear
6:07 AM 42.8 °F - 42.8 °F 100% 30.21 in 7.0 mi Calm Calm - N/A   Clear
6:20 AM 42.8 °F - 42.8 °F 100% 30.21 in 7.0 mi Calm Calm - N/A   Clear
6:55 AM 41.7 °F - 41.5 °F 99% 30.23 in 6.0 mi Calm Calm - N/A   Partly Cloudy
6:58 AM 42.8 °F - 41.0 °F 93% 30.24 in 5.0 mi Calm Calm - N/A   Partly Cloudy
7:55 AM 42.6 °F - 42.3 °F 99% 30.26 in 5.0 mi Calm Calm - N/A   Mostly Cloudy
8:55 AM 48.0 °F - 47.8 °F 99% 30.27 in 10.0 mi Calm Calm - N/A   Clear
9:55 AM 59.2 °F - 51.3 °F 75% 30.28 in 10.0 mi Calm Calm - N/A   Partly Cloudy
10:55 AM 64.4 °F - 51.4 °F 63% 30.26 in 10.0 mi Calm Calm - N/A   Partly Cloudy
11:55 AM 68.5 °F - 51.6 °F 55% 30.25 in 10.0 mi Calm Calm - N/A   Mostly Cloudy
12:55 PM 69.8 °F - 51.3 °F 52% 30.22 in 10.0 mi SE 5.8 mph - N/A   Clear
1:55 PM 70.7 °F - 51.1 °F 50% 30.21 in 10.0 mi Calm Calm - N/A   Clear
2:55 PM 69.6 °F - 51.1 °F 52% 30.21 in 10.0 mi Variable 5.8 mph - N/A   Scattered Clouds
3:55 PM 69.1 °F - 50.7 °F 52% 30.22 in 10.0 mi Calm Calm - N/A   Overcast
4:55 PM 64.2 °F - 51.6 °F 64% 30.22 in 10.0 mi Calm Calm - N/A   Scattered Clouds
5:55 PM 59.5 °F - 51.1 °F 74% 30.23 in 10.0 mi Calm Calm - N/A   Mostly Cloudy
6:55 PM 56.7 °F - 50.7 °F 80% 30.25 in 10.0 mi Calm Calm - N/A   Mostly Cloudy
7:55 PM 54.9 °F - 50.5 °F 85% 30.26 in 10.0 mi Calm Calm - N/A   Mostly Cloudy
8:55 PM 54.3 °F - 50.5 °F 87% 30.25 in 10.0 mi Calm Calm - N/A   Scattered Clouds
9:55 PM 52.7 °F - 50.2 °F 91% 30.26 in 10.0 mi Calm Calm - N/A   Scattered Clouds
10:55 PM 50.4 °F - 49.6 °F 97% 30.25 in 10.0 mi Calm Calm - N/A   Clear
11:55 PM 47.8 °F - 47.5 °F 99% 30.25 in 10.0 mi Calm Calm - N/A   Clear